Voltar ao catálogo

STARLINK-32144

AtivoComunicaçõesVLEO
NORAD 60269·PAYLOAD·🇺🇸 United States

Lançado Jul 27, 2024 de Cape Canaveral Space Force Station

Loading…

Próximas Passagens (próximas 24 horas)

TLE

AtualizadoSource: CelesTrak SupGP

Época: Sep 14, 2026, 20:40 UTC

1 60269C 24131Q   26257.86159722  .00055932  00000+0  17988-2 0  2571
2 60269  53.1568 252.2530 0000767 149.6171 176.8693 15.31671680    10

Acompanhe STARLINK-32144 em tempo real com AllMySat

Download on the App Store